Weather History for Lubbock, TX

Change the Weather History Date:

Thursday, January 10, 2013

  Actual Average Record
Temperature  
Mean Temperature 46 °F 40 °F  
Max Temperature 52 °F 53 °F 76 °F (1923)
Min Temperature 39 °F 26 °F -10 °F (1930)
Degree Days  
Heating Degree Days 20 25  
Month to date heating degree days 254  
Since 1 July heating degree days 1652  
Cooling Degree Days 0 0  
Month to date cooling degree days 0  
Year to date cooling degree days 0  
Moisture  
Dew Point 40 °F    
Average Humidity 89    
Maximum Humidity 100    
Minimum Humidity 66    
Precipitation  
Precipitation 0.04 in 0.01 in 0.93 in (1949)
Month to date precipitation 0.18  
Year to date precipitation 0.18  
Snow  
Snow 0.00 in 0.10 in 4.50 in (1936)
Month to date snowfall 0.8  
Since 1 July snowfall 4.0  
Snow Depth -    
Sea Level Pressure  
Sea Level Pressure 29.91 in    
Wind  
Wind Speed 14 mph (NW)    
Max Wind Speed 18 mph    
Max Gust Speed 24 mph    
Visibility 7 miles    
Events Rain    
T = Trace of Precipitation, MM = Missing Value Source: NWS Daily Summary

Daily Weather History Graph

Daily Weather History Graph

Search for Another Location

Airport:

Trip Planner

Search our weather history database for the weather conditions in past years. The results will help you decide how hot, cold, wet, or windy it might be!

Date:

Astronomy

Jan. 10, 2013 Rise Set
Actual Time 7:52 AM CST 5:57 PM CST
Civil Twilight 7:25 AM CST 6:24 PM CST
Nautical Twilight 6:54 AM CST 6:55 PM CST
Astronomical Twilight 6:24 AM CST 7:25 PM CST
Moon 6:34 AM CST (1/10) 5:07 PM CST (1/10)
Length of Visible Light 10h 59m
Length of Day
10h 05m
Waning Crescent, 2% of the Moon is Illuminated
Jan 10
Waning Crescent
Jan 11
New
Jan 18
First Quarter
Jan 26
Full
Feb 3
Last Quarter

Hourly Weather History & Observations

Time (CST) Temp. Windchill Dew Point Humidity Pressure Visibility Wind Dir Wind Speed Gust Speed Precip Events Conditions
12:44 AM 39.2 °F 30.2 °F 39.2 °F 100% 30.01 in 10.0 mi NNE 17.3 mph - N/A   Mostly Cloudy
12:53 AM 39.9 °F 30.8 °F 39.9 °F 100% 29.99 in 10.0 mi NNE 18.4 mph - N/A   Mostly Cloudy
1:21 AM 41.0 °F 32.5 °F 39.2 °F 93% 29.98 in 10.0 mi NNE 17.3 mph - N/A   Overcast
1:48 AM 39.2 °F 29.8 °F 39.2 °F 100% 29.95 in 10.0 mi North 18.4 mph - N/A   Overcast
1:53 AM 39.9 °F 31.8 °F 39.0 °F 97% 29.94 in 10.0 mi North 15.0 mph 24.2 mph N/A   Overcast
2:53 AM 41.0 °F 33.9 °F 39.9 °F 96% 29.95 in 10.0 mi NNE 12.7 mph - N/A   Overcast
3:36 AM 39.2 °F 32.0 °F 39.2 °F 100% 29.99 in 4.0 mi NNE 11.5 mph - N/A   Overcast
3:41 AM 39.2 °F 31.2 °F 39.2 °F 100% 29.98 in 2.5 mi NNE 13.8 mph - N/A   Light Drizzle
3:48 AM 39.2 °F 31.2 °F 39.2 °F 100% 29.98 in 1.5 mi NNE 13.8 mph - 0.00 in Rain Light Rain
3:53 AM 39.2 °F 32.0 °F 39.2 °F 100% 29.98 in 1.2 mi NE 11.5 mph - N/A Rain Light Rain
4:43 AM 39.2 °F 32.0 °F 39.2 °F 100% 29.95 in 2.0 mi NNE 11.5 mph - N/A Rain Light Rain
4:50 AM 39.2 °F 32.5 °F 39.2 °F 100% 29.94 in 3.0 mi North 10.4 mph - 0.04 in Rain Light Rain
4:53 AM 39.9 °F 33.9 °F 39.9 °F 100% 29.92 in 3.0 mi North 9.2 mph - 0.04 in Rain Light Rain
5:00 AM 39.2 °F 32.5 °F 39.2 °F 100% 29.93 in 5.0 mi North 10.4 mph - 0.00 in Rain Light Rain
5:26 AM 39.2 °F 32.0 °F 39.2 °F 100% 29.90 in 10.0 mi NNW 11.5 mph - 0.00 in   Overcast
5:50 AM 39.2 °F 30.8 °F 39.2 °F 100% 29.88 in 10.0 mi NW 15.0 mph - 0.00 in   Overcast
5:53 AM 39.2 °F 31.2 °F 39.2 °F 100% 29.88 in 10.0 mi NW 13.8 mph - N/A   Overcast
6:53 AM 39.0 °F 31.8 °F 37.9 °F 96% 29.92 in 5.0 mi NNW 11.5 mph - N/A   Overcast
7:53 AM 39.0 °F 33.4 °F 39.0 °F 100% 29.95 in 4.0 mi NNE 8.1 mph - N/A   Overcast
8:53 AM 39.0 °F 33.4 °F 37.9 °F 96% 29.97 in 3.0 mi NW 8.1 mph - N/A   Overcast
9:00 AM 39.2 °F 33.6 °F 37.4 °F 93% 29.98 in 1.8 mi WNW 8.1 mph - N/A   Overcast
9:14 AM 39.2 °F 33.0 °F 37.4 °F 93% 29.99 in 0.8 mi WNW 9.2 mph - 0.00 in Rain Light Rain
9:53 AM 39.0 °F 32.8 °F 39.0 °F 100% 29.97 in 0.8 mi NW 9.2 mph - 0.00 in   Overcast
9:56 AM 39.2 °F 33.0 °F 39.2 °F 100% 29.98 in 2.0 mi WNW 9.2 mph - N/A   Overcast
10:07 AM 39.2 °F 33.0 °F 39.2 °F 100% 29.97 in 3.0 mi NW 9.2 mph - N/A   Overcast
10:53 AM 41.0 °F 34.7 °F 39.9 °F 96% 29.95 in 9.0 mi WNW 10.4 mph - N/A   Overcast
11:53 AM 41.0 °F 32.8 °F 37.9 °F 89% 29.94 in 4.0 mi West 16.1 mph - N/A   Overcast
12:53 PM 42.1 °F 36.1 °F 39.0 °F 89% 29.89 in 10.0 mi WNW 10.4 mph - N/A   Overcast
1:26 PM 42.8 °F 36.6 °F 39.2 °F 87% 29.88 in 10.0 mi West 11.5 mph - N/A   Overcast
1:53 PM 46.9 °F - 41.0 °F 80% 29.85 in 10.0 mi West 12.7 mph - N/A   Mostly Cloudy
2:05 PM 46.4 °F 42.4 °F 41.0 °F 81% 29.87 in 10.0 mi WNW 8.1 mph - N/A   Mostly Cloudy
2:53 PM 50.0 °F - 42.1 °F 74% 29.83 in 10.0 mi WSW 15.0 mph - N/A   Mostly Cloudy
3:08 PM 50.0 °F - 42.8 °F 76% 29.87 in 10.0 mi West 16.1 mph - N/A   Mostly Cloudy
3:28 PM 51.8 °F - 42.8 °F 71% 29.87 in 10.0 mi West 15.0 mph - N/A   Mostly Cloudy
3:53 PM 52.0 °F - 42.1 °F 69% 29.83 in 10.0 mi WSW 17.3 mph - N/A   Mostly Cloudy
4:53 PM 50.0 °F - 42.1 °F 74% 29.83 in 10.0 mi WSW 9.2 mph - N/A   Mostly Cloudy
5:53 PM 48.9 °F - 43.0 °F 80% 29.81 in 10.0 mi South 9.2 mph - N/A   Mostly Cloudy
6:53 PM 48.9 °F - 41.0 °F 74% 29.82 in 10.0 mi SW 10.4 mph - N/A   Mostly Cloudy
7:53 PM 48.0 °F - 39.9 °F 74% 29.81 in 10.0 mi SW 11.5 mph - N/A   Mostly Cloudy
8:53 PM 48.0 °F - 37.0 °F 66% 29.80 in 10.0 mi SW 11.5 mph - N/A   Scattered Clouds
9:53 PM 48.0 °F - 37.0 °F 66% 29.80 in 10.0 mi SSW 16.1 mph - N/A   Mostly Cloudy
10:53 PM 46.4 °F 39.8 °F 37.4 °F 71% 29.83 in 10.0 mi SW 16.1 mph - N/A   Mostly Cloudy
11:53 PM 45.0 °F 38.2 °F 37.0 °F 74% 29.80 in 10.0 mi SW 15.0 mph - N/A   Mostly Cloudy